Location: Camp Creek
(33.9000°N, 111.8167°W)
Time: 00:01:38
(UTC-07:00)

DELTA 2 R/B (1) - Visible Passes

Search period start: 25 October 2014 00:00
Search period end: 04 November 2014 00:00
Orbit: 791 x 803 km, 39.6° (Epoch: 24 October)

Date Brightness Start Highest point End Pass type
(mag) Time Alt. Az. Time Alt. Az. Time Alt. Az.
25 Oct 4.8 03:59:17 37° NE 03:59:17 37° NE 04:02:57 10° E visible
25 Oct 3.6 05:40:04 17° WNW 05:44:22 89° SSW 05:49:55 10° ESE visible
26 Oct 5.8 03:30:27 21° ENE 03:30:27 21° ENE 03:32:17 10° E visible
26 Oct 3.5 05:11:16 34° WNW 05:13:45 86° NNE 05:19:18 10° ESE visible
27 Oct 3.4 04:42:30 69° NW 04:43:08 82° NNE 04:48:41 10° ESE visible
28 Oct 4.1 04:13:47 54° E 04:13:47 54° E 04:18:03 10° ESE visible
28 Oct 4.5 05:54:35 14° W 05:58:44 33° SW 06:03:38 10° SSE visible
29 Oct 5.5 03:45:07 26° E 03:45:07 26° E 03:47:26 10° ESE visible
29 Oct 4.3 05:25:56 26° WSW 05:28:09 36° SW 05:33:10 10° SSE visible
30 Oct 6.4 03:16:32 11° ESE 03:16:32 11° ESE 03:16:47 10° ESE visible
30 Oct 4.1 04:57:21 39° SW 04:57:34 40° SSW 05:02:41 10° SE visible
31 Oct 4.7 04:28:48 33° S 04:28:48 33° S 04:32:12 10° SE visible
01 Nov 5.7 04:00:18 18° SE 04:00:18 18° SE 04:01:41 10° SE visible
01 Nov 5.9 20:14:19 10° SSW 20:15:07 14° SSW 20:15:07 14° SSW visible
02 Nov 5.7 05:12:40 11° SSW 05:12:40 11° SSW 05:13:15 10° SSW visible
02 Nov 5.1 19:43:52 10° SSW 19:46:36 24° S 19:46:36 24° S visible
03 Nov 4.6 19:13:26 10° SSW 19:18:01 28° SE 19:18:01 28° SE visible
03 Nov 6.4 20:58:38 10° WSW 20:58:50 11° WSW 20:58:50 11° WSW visible
